Location: アルンシュタイン
(50.0000°N, 10.0000°E)
Time: 20:54:01
(UTC+02:00)

Oscar 19 - Pass Details

Date: 31 January 2022
Orbit: 774 x 789 km, 98.8° (Epoch: 27 May)

Event Time Altitude Azimuth Distance (km) Brightness Sun altitude
Rises 04:08:58 0° 12° (NNE) 3,287 14.2 -36.2°
Reaches altitude 10° 04:11:19 10° 10° (N) 2,352 13.4 -35.8°
Enters shadow 04:11:42 12° 9° (N) 2,199 13.2 -35.8°
